Temperature
20 20 20 20 20 20 20 21 21 21 20 20 20 20 20 20 20 20 19 19 19 19 19 19 18 18 18 18 18 18 18 18 18 18 18 18 17 17 17 17 17 17 17
21 20 20 20 20 20 21 21 21 21 20 20 20 20 20 20 20 20 19 19 19 19 19 19 19 19 19 19 19 19 18 18 18 17 17 17 17 17 17 17 17 17 17
21 21 20 20 20 21 21 21 21 21 20 20 20 20 20 20 20 20 19 19 19 19 19 19 19 19 19 19 19 18 18 18 17 17 17 17 17 17 17 17 17 17 17
21 21 20 20 20 21 21 21 21 21 20 20 20 20 20 20 20 19 19 19 19 19 19 19 19 19 19 18 18 18 18 18 17 17 17 17 17 17 17 17 17 17 17
21 20 20 20 20 20 21 21 21 20 20 20 20 20 20 20 19 19 19 19 19 19 19 19 18 18 18 18 18 18 18 18 17 17 17 17 17 17 17 17 17 17 17
20 20 20 20 20 20 20 20 20 20 20 20 20 20 20 19 19 19 19 19 19 19 18 18 18 18 18 18 18 18 17 17 17 17 17 17 17 17 17 17 17 17 17
20 20 20 20 20 20 20 20 20 20 20 20 20 19 19 19 19 19 19 19 19 18 18 18 18 18 18 18 18 17 17 17 17 17 17 17 17 17 17 17 17 17 17
20 20 20 20 20 20 20 20 20 20 20 20 19 19 19 19 19 19 19 19 18 18 18 18 18 18 18 17 17 17 17 17 17 17 17 17 17 17 17 17 17 17 17
19 19 20 19 20 19 19 19 19 19 19 19 19 19 19 19 19 19 19 18 18 18 18 18 18 18 17 17 17 17 17 17 17 17 17 17 17 17 17 17 17 17 17
19 19 19 19 19 19 19 19 19 19 19 19 19 19 19 19 19 19 18 18 18 18 18 18 18 18 17 17 17 17 17 17 17 17 17 17 17 17 17 17 17 17 17
19 19 19 19 19 19 19 19 19 19 19 19 19 19 19 19 19 18 18 18 18 18 18 18 18 18 17 17 17 17 17 17 17 17 17 17 17 17 17 17 17 17 17
19 19 19 19 19 19 19 19 19 18 18 18 18 18 18 18 18 18 18 18 18 18 18 18 18 18 17 17 17 17 17 17 17 17 17 17 17 17 17 16 16 17 17
19 19 19 19 18 18 18 18 18 18 18 18 18 18 18 18 18 18 18 18 18 18 18 18 18 18 17 17 17 17 17 17 17 17 17 17 17 17 17 16 16 16 16
19 19 18 18 18 18 18 18 18 18 18 18 18 18 18 18 18 18 18 18 18 18 18 17 17 17 17 17 17 17 17 17 17 17 17 17 17 16 16 16 16 16 16
18 18 18 18 18 18 18 18 18 18 18 18 18 18 18 18 18 18 18 17 17 17 17 17 17 17 17 17 17 17 17 17 17 17 17 17 17 16 16 16 16 16 16
18 18 18 18 18 18 18 18 18 18 18 18 18 18 17 17 17 17 17 17 17 17 17 17 17 17 17 17 17 17 17 17 17 17 17 17 17 16 16 16 16 16 16
18 18 18 18 17 18 17 17 17 18 17 17 17 17 17 17 17 17 17 17 17 17 17 17 17 16 16 16 17 17 17 16 16 17 17 17 17 16 16 16 16 16 16
17 17 17 17 17 17 17 17 17 17 17 17 17 17 17 17 17 17 17 17 17 16 16 16 16 16 16 16 16 16 16 16 16 16 16 16 16 16 16 16 16 16 16
16 16 16 16 16 17 17 17 17 17 17 17 17 17 17 16 16 16 17 17 16 16 16 16 16 16 16 16 16 16 16 16 16 16 16 16 16 16 16 16 16 16 16
15 15 15 16 16 16 16 16 16 16 16 16 16 16 16 16 16 16 16 16 16 16 16 16 16 16 16 16 15 15 16 16 16 16 16 16 16 16 16 16 15 15 15
15 15 15 15 15 15 15 16 16 16 16 16 16 16 16 16 16 16 16 16 15 15 16 15 15 15 15 15 15 15 15 15 15 15 15 15 15 15 15 15 15 15 15
14 14 14 14 15 15 15 15 15 15 15 15 15 15 15 15 15 15 15 15 15 15 15 15 15 15 15 15 15 14 14 15 15 15 15 15 15 15 15 15 15 14 14
14 14 14 14 14 14 15 15 15 15 15 15 15 15 15 14 14 15 15 15 15 15 15 15 15 14 14 14 14 14 14 14 14 14 14 14 14 14 14 14 14 14 14
13 13 13 13 14 14 14 14 14 14 14 14 14 14 14 14 14 14 14 14 14 14 14 14 14 14 14 14 14 14 14 14 14 14 14 14 14 14 13 13 13 13 13
12 13 13 13 13 13 13 14 13 13 13 13 13 13 13 13 13 13 13 14 14 14 14 14 14 14 14 14 14 14 13 13 13 13 13 13 13 13 13 13 13 13 13
12 12 12 13 13 12 12 13 13 13 13 12 12 12 12 12 13 13 13 13 13 13 13 13 13 13 13 13 13 13 13 13 13 13 13 13 13 13 12 12 12 12 12
Wind_Speed
8 13 20 19 18 19 20 21 22 23 24 24 24 24 23 22 21 20 18 17 15 14 14 14 15 16 17 17 18 18 18 18 17 17 17 17 17 17 16 17 16 15 17
13 17 21 20 20 20 21 21 22 23 23 24 24 24 23 22 20 19 18 16 15 14 14 14 14 15 16 16 17 17 17 16 16 16 16 16 16 16 16 15 14 14 16
16 17 21 21 21 21 21 21 22 22 22 23 23 23 22 21 20 18 17 16 15 14 14 14 14 15 15 16 16 16 16 15 14 14 14 13 14 15 15 15 15 15 15
15 16 18 21 21 22 22 22 21 22 22 22 21 21 20 20 19 17 17 16 15 14 14 14 14 14 15 15 15 14 14 14 13 13 11 11 12 14 14 15 14 14 14
13 15 18 20 20 21 21 21 21 21 21 21 20 20 19 18 17 16 16 15 14 14 13 13 13 14 14 14 13 13 12 12 12 11 9 9 10 14 14 14 14 13 13
11 14 17 19 19 20 20 21 20 20 20 19 19 19 18 17 16 15 14 14 13 13 13 13 13 12 12 12 12 11 10 11 11 10 9 9 10 13 14 14 14 13 12
10 11 16 17 18 18 19 19 19 19 18 18 17 17 16 15 15 14 13 12 12 11 11 11 11 11 11 11 10 9 8 10 11 10 10 9 10 12 13 13 13 13 12
11 11 13 16 16 16 17 17 17 17 17 16 16 15 14 14 13 12 12 11 11 10 10 10 9 9 9 8 8 7 7 8 10 10 10 10 12 13 13 13 12 12 12
10 9 9 11 13 14 14 15 16 15 15 15 15 14 13 13 12 11 10 10 10 9 9 9 8 8 8 7 6 5 5 7 8 7 9 11 13 14 13 13 13 12 12
8 7 7 8 9 10 11 13 14 14 14 14 13 13 12 11 11 10 9 9 9 9 8 7 7 7 6 5 4 3 4 5 6 6 8 11 14 14 14 14 13 13 12
8 7 6 6 7 7 8 10 11 11 11 12 11 11 10 9 8 8 8 8 8 8 7 7 6 6 5 4 3 2 3 3 4 5 8 11 14 15 14 14 14 13 12
7 6 5 5 5 5 5 6 7 7 8 8 8 8 8 8 7 6 7 7 7 7 7 6 6 5 4 3 2 2 2 3 4 5 8 11 13 15 15 15 14 14 13
5 5 5 4 4 4 3 4 5 5 5 6 7 7 7 6 5 5 4 5 5 6 5 5 5 4 4 3 2 2 3 3 4 5 7 10 13 15 15 16 16 15 14
6 5 4 4 3 3 3 3 4 3 3 3 5 6 5 4 4 4 4 4 5 5 5 4 4 4 4 4 4 3 4 4 5 6 7 9 12 15 16 16 16 16 15
5 6 4 4 4 3 2 1 2 2 3 3 3 5 6 4 3 3 3 4 5 6 5 4 4 4 4 4 4 4 5 5 6 5 6 8 11 14 15 16 16 16 16
5 5 5 5 4 3 2 1 1 1 2 3 3 4 6 5 4 4 3 4 4 5 5 5 5 4 3 3 3 3 4 4 5 5 5 6 9 12 15 15 16 16 16
5 6 6 4 5 4 2 1 2 1 2 1 1 2 4 5 5 4 3 3 4 5 5 4 3 2 2 2 3 2 2 3 4 4 4 5 6 9 12 14 14 16 15
6 6 6 5 6 5 3 2 2 3 2 1 1 1 2 3 4 4 3 3 5 4 4 3 3 2 3 2 2 1 1 2 3 3 3 4 5 6 9 11 13 14 14
7 6 6 7 7 5 4 3 2 3 2 2 2 1 1 2 3 3 2 3 4 3 2 3 3 3 3 3 2 2 1 1 2 3 3 4 4 6 7 9 11 12 12
6 6 7 7 8 6 4 2 2 3 3 3 3 3 3 1 1 1 1 2 2 2 2 2 3 2 2 2 1 1 1 1 1 2 3 3 3 4 5 6 7 9 11
7 7 7 7 7 5 3 2 2 2 2 3 4 5 6 5 4 2 1 1 0 1 2 3 2 2 2 2 1 0 1 0 1 2 2 1 2 2 3 4 5 7 8
7 7 7 7 7 6 3 2 1 1 2 3 4 6 7 7 6 4 2 1 1 1 1 2 2 2 2 3 2 1 1 1 1 1 1 2 2 2 2 3 5 6 8
7 7 6 7 7 7 6 3 2 3 3 3 4 4 7 7 6 5 4 2 2 1 1 2 2 3 3 3 3 3 3 3 1 0 1 1 1 1 1 2 2 4 6
6 6 6 7 8 8 7 6 5 4 3 3 3 3 5 8 7 6 5 3 2 1 1 2 2 2 3 4 3 3 2 2 2 1 1 1 1 1 1 1 2 3 5
5 5 6 7 8 8 8 8 6 6 4 3 4 5 5 6 8 8 7 5 3 2 2 2 2 2 3 4 3 2 2 2 2 3 3 2 1 1 1 2 2 3 4
5 6 6 8 9 8 9 8 8 8 6 6 6 5 5 4 5 8 8 6 4 3 2 2 2 2 3 3 3 3 3 3 3 3 3 3 3 1 1 2 2 3 4
Wind_Direction
142 145 141 138 132 123 117 114 113 116 120 123 126 128 130 131 130 130 129 125 121 116 113 109 108 108 110 113 116 118 120 121 122 123 123 121 119 118 116 115 113 114 115
140 144 141 139 134 126 121 117 116 117 120 123 125 127 129 131 131 130 129 126 123 120 117 114 112 113 114 117 119 122 123 124 127 129 128 123 122 120 118 117 117 118 118
136 141 142 141 136 130 126 122 120 120 121 123 125 128 130 131 131 131 130 128 126 123 121 119 119 119 120 121 123 125 126 127 129 128 123 122 126 126 124 124 123 121 120
132 136 140 141 137 133 130 127 125 125 125 126 127 129 131 132 132 132 131 130 128 126 125 125 124 125 125 127 128 129 130 129 126 121 119 128 132 134 132 129 128 127 125
125 132 141 140 138 135 133 132 131 131 130 130 130 132 133 134 134 134 133 131 130 128 128 128 129 129 130 131 132 134 133 132 132 125 123 128 136 140 139 137 135 133 132
118 129 140 141 139 138 137 137 136 136 135 134 134 135 135 135 135 135 135 134 133 131 130 130 131 133 134 134 135 137 137 141 138 136 136 138 145 149 148 146 144 140 140
118 126 138 139 139 140 140 140 141 140 139 138 138 138 138 137 137 138 138 138 137 136 134 134 134 135 136 137 138 140 144 147 145 149 152 155 160 159 158 154 151 150 148
119 118 132 139 142 145 145 146 146 145 144 143 143 143 142 142 142 143 143 143 143 142 142 141 140 139 138 138 139 140 145 151 152 160 166 170 174 170 167 162 158 157 154
109 113 118 135 142 146 149 151 151 150 150 149 149 150 151 151 151 152 153 152 152 152 152 152 150 147 145 144 142 140 147 152 156 170 178 181 183 178 173 170 168 166 162
100 97 101 112 128 142 153 157 157 157 159 159 159 160 160 161 162 163 163 164 166 166 166 166 162 159 158 157 154 148 148 149 161 172 181 189 190 186 181 179 177 174 172
98 86 86 89 97 125 145 155 159 162 166 167 168 170 167 169 171 174 177 179 181 181 181 182 179 174 170 167 166 158 147 157 176 181 190 198 196 193 189 186 185 183 180
100 93 86 90 98 111 129 136 144 156 166 170 172 175 173 174 179 183 192 196 197 197 196 196 199 195 182 176 185 179 166 189 201 202 206 208 204 199 194 191 191 191 189
105 95 89 93 95 95 103 128 138 147 157 170 179 180 177 176 182 188 196 212 215 211 206 205 205 200 189 189 193 205 210 209 220 221 222 218 211 204 200 198 197 196 194
97 88 75 82 86 87 100 121 137 147 161 178 189 186 179 177 186 198 204 215 216 212 204 202 200 209 211 213 210 220 227 223 225 227 230 225 218 210 207 205 202 201 200
87 64 57 68 73 68 78 109 136 154 174 185 193 198 193 189 199 208 218 221 221 215 207 204 207 209 218 230 228 222 223 227 229 226 228 230 226 220 214 210 207 206 205
55 43 41 56 52 53 57 68 86 136 169 174 189 200 202 203 206 208 216 222 224 220 215 214 212 208 218 223 232 225 226 224 225 224 231 237 236 227 217 212 210 209 206
43 34 28 44 45 47 46 60 70 91 118 123 184 191 194 202 207 207 212 222 227 222 216 221 223 209 224 222 228 225 223 231 230 227 233 236 238 230 217 210 209 208 206
42 39 28 30 38 38 33 40 57 74 85 89 115 151 196 214 217 212 217 228 231 216 205 209 208 209 218 210 214 231 232 242 250 239 237 236 232 227 215 210 208 207 207
46 43 35 30 28 28 27 34 45 69 75 64 49 36 260 230 228 215 229 239 228 212 212 221 203 196 205 208 214 228 245 255 262 257 245 234 226 218 206 206 207 207 205
51 44 38 32 23 15 22 22 28 43 47 48 40 23 17 9 310 217 235 260 229 209 219 214 208 194 188 184 207 255 264 271 273 267 257 239 217 205 193 193 198 203 201
46 41 37 35 20 18 21 12 15 24 27 39 41 35 32 26 19 22 3 358 317 236 237 216 201 190 177 148 140 276 305 276 277 281 280 246 207 193 179 178 184 192 192
48 39 37 33 26 21 17 8 12 60 57 51 39 34 29 26 18 13 19 9 357 274 250 224 195 185 188 176 166 166 253 281 260 250 250 245 231 181 174 178 183 182 181
53 42 41 32 31 25 17 26 38 55 54 39 28 22 19 17 18 14 18 19 3 308 260 244 220 205 210 207 195 177 190 219 219 233 217 225 237 200 171 155 179 181 175
60 48 42 41 39 30 27 39 47 48 48 33 26 19 15 19 16 14 16 14 7 345 306 282 250 231 217 222 221 218 207 174 180 198 213 203 187 183 154 122 126 152 163
61 55 47 46 42 35 36 40 50 53 47 36 31 27 17 17 18 15 16 12 3 348 331 315 295 256 236 231 223 209 204 208 203 193 204 181 143 76 81 95 104 114 140
52 49 47 49 40 33 37 42 48 49 45 41 29 18 8 5 8 11 11 11 4 350 335 322 307 278 257 251 241 223 206 199 198 192 194 181 163 117 73 76 94 100 110
Height
1520 1522 1525 1529 1532 1535 1537 1539 1541 1543 1545 1547 1549 1551 1553 1555 1557 1558 1560 1562 1563 1565 1566 1567 1568 1568 1569 1570 1570 1571 1571 1572 1573 1573 1574 1574 1575 1576 1576 1577 1577 1578 1579
1519 1523 1526 1530 1533 1536 1538 1541 1543 1545 1547 1549 1551 1553 1555 1557 1558 1560 1562 1564 1565 1566 1567 1568 1569 1570 1570 1571 1572 1572 1573 1574 1574 1575 1576 1577 1577 1578 1578 1579 1579 1580 1581
1520 1524 1527 1530 1534 1537 1539 1542 1544 1546 1548 1550 1552 1554 1556 1558 1560 1562 1564 1565 1567 1568 1569 1570 1570 1571 1572 1572 1573 1574 1574 1575 1576 1577 1578 1579 1579 1580 1580 1580 1581 1582 1582
1522 1526 1529 1532 1535 1538 1541 1543 1545 1548 1550 1552 1554 1556 1558 1560 1561 1563 1565 1567 1568 1569 1570 1571 1572 1572 1573 1574 1575 1575 1576 1577 1578 1579 1579 1580 1581 1581 1582 1582 1583 1583 1584
1525 1528 1531 1534 1537 1540 1542 1544 1547 1549 1551 1553 1555 1557 1559 1561 1563 1565 1566 1568 1569 1570 1571 1572 1573 1574 1574 1575 1576 1577 1578 1579 1580 1580 1581 1582 1582 1583 1583 1583 1584 1585 1585
1527 1530 1533 1536 1539 1542 1544 1546 1548 1550 1552 1555 1557 1558 1560 1562 1564 1566 1568 1569 1570 1571 1572 1573 1574 1575 1575 1576 1577 1578 1579 1580 1581 1581 1582 1583 1583 1584 1584 1585 1585 1586 1587
1529 1533 1536 1538 1541 1543 1545 1547 1549 1552 1554 1556 1558 1560 1562 1564 1565 1567 1568 1570 1571 1572 1573 1574 1575 1575 1576 1577 1578 1579 1580 1581 1582 1582 1583 1583 1584 1584 1585 1586 1586 1587 1588
1531 1534 1537 1540 1542 1545 1547 1549 1551 1553 1555 1557 1559 1561 1563 1564 1566 1568 1569 1570 1572 1573 1574 1575 1575 1576 1577 1578 1579 1580 1581 1581 1582 1583 1583 1584 1584 1585 1586 1586 1587 1588 1588
1532 1535 1538 1540 1543 1546 1548 1550 1552 1554 1556 1558 1560 1562 1563 1565 1566 1568 1569 1570 1572 1573 1574 1575 1576 1577 1577 1578 1579 1580 1581 1582 1583 1583 1584 1584 1585 1585 1586 1587 1587 1588 1589
1533 1536 1538 1541 1543 1545 1548 1550 1553 1555 1557 1559 1560 1562 1564 1565 1566 1568 1569 1570 1571 1572 1573 1575 1576 1577 1577 1578 1579 1580 1581 1582 1582 1583 1584 1584 1585 1585 1586 1586 1587 1588 1589
1533 1536 1538 1541 1543 1546 1548 1551 1553 1555 1557 1559 1561 1562 1563 1565 1566 1567 1569 1570 1571 1572 1573 1574 1575 1576 1577 1577 1578 1579 1580 1581 1582 1583 1583 1584 1584 1585 1585 1586 1587 1587 1588
1533 1536 1538 1540 1543 1546 1548 1550 1552 1554 1556 1558 1560 1562 1563 1564 1566 1567 1568 1569 1570 1571 1572 1573 1574 1575 1576 1577 1577 1578 1579 1580 1581 1582 1583 1583 1584 1584 1585 1585 1586 1587 1587
1533 1536 1538 1540 1542 1544 1547 1549 1551 1554 1556 1558 1559 1561 1563 1564 1565 1566 1567 1568 1569 1570 1571 1572 1573 1574 1574 1575 1576 1577 1578 1579 1580 1581 1582 1582 1583 1583 1584 1584 1585 1586 1587
1533 1535 1538 1539 1542 1543 1546 1548 1551 1553 1555 1557 1558 1560 1561 1563 1564 1565 1566 1567 1568 1569 1570 1570 1571 1572 1573 1574 1575 1575 1576 1577 1578 1579 1580 1581 1582 1582 1583 1583 1584 1585 1585
1534 1536 1537 1539 1541 1543 1545 1548 1550 1552 1554 1556 1557 1559 1560 1561 1562 1564 1565 1566 1566 1567 1568 1569 1570 1571 1571 1572 1573 1574 1574 1575 1576 1577 1578 1579 1580 1581 1581 1582 1582 1583 1584
1536 1537 1538 1539 1541 1543 1545 1547 1549 1551 1553 1554 1556 1557 1559 1560 1561 1562 1563 1564 1564 1565 1566 1567 1568 1569 1569 1570 1571 1572 1572 1573 1574 1575 1576 1577 1578 1579 1580 1580 1581 1581 1582
1536 1537 1538 1539 1541 1542 1544 1546 1548 1550 1552 1553 1554 1555 1557 1558 1559 1560 1560 1561 1562 1563 1564 1564 1565 1566 1567 1568 1568 1569 1570 1571 1571 1572 1574 1575 1576 1576 1577 1578 1579 1579 1580
1537 1537 1538 1539 1540 1542 1543 1545 1547 1548 1550 1551 1552 1553 1554 1555 1556 1557 1558 1559 1560 1560 1561 1562 1562 1563 1564 1565 1565 1566 1567 1568 1568 1569 1570 1571 1573 1574 1574 1575 1576 1576 1577
1537 1537 1538 1539 1540 1541 1542 1543 1545 1547 1548 1549 1550 1551 1552 1553 1553 1554 1555 1555 1556 1557 1558 1558 1559 1560 1560 1561 1562 1562 1563 1564 1565 1566 1566 1568 1569 1570 1571 1572 1573 1574 1574
1538 1538 1538 1539 1539 1541 1541 1542 1544 1545 1546 1546 1547 1548 1549 1550 1551 1551 1552 1552 1553 1554 1554 1555 1555 1556 1557 1558 1558 1559 1559 1560 1561 1562 1563 1564 1565 1566 1567 1568 1569 1570 1571
1537 1537 1538 1538 1539 1540 1540 1541 1542 1543 1543 1544 1545 1545 1546 1547 1548 1548 1549 1549 1550 1551 1552 1552 1552 1553 1553 1554 1555 1555 1556 1556 1557 1558 1559 1559 1560 1561 1563 1564 1565 1567 1568
1537 1537 1538 1538 1538 1539 1539 1540 1541 1541 1542 1542 1543 1543 1544 1544 1545 1545 1546 1546 1546 1547 1548 1549 1549 1549 1549 1550 1551 1552 1552 1553 1553 1554 1555 1556 1557 1558 1558 1560 1561 1562 1564
1538 1537 1537 1537 1537 1538 1538 1539 1539 1540 1540 1541 1541 1541 1542 1542 1542 1542 1542 1543 1543 1544 1544 1545 1545 1545 1546 1547 1548 1549 1549 1549 1550 1551 1551 1552 1553 1554 1555 1556 1557 1558 1559
1539 1538 1538 1537 1537 1538 1538 1538 1539 1539 1539 1539 1540 1540 1540 1540 1540 1540 1540 1540 1540 1541 1541 1541 1541 1541 1542 1542 1543 1544 1546 1546 1547 1547 1548 1549 1550 1551 1551 1552 1553 1554 1556
1539 1539 1538 1538 1537 1538 1538 1538 1538 1538 1539 1539 1539 1539 1539 1539 1538 1538 1537 1537 1537 1537 1537 1537 1537 1537 1537 1538 1538 1539 1540 1542 1543 1544 1544 1545 1546 1547 1548 1549 1550 1551 1552
1540 1539 1539 1538 1538 1538 1538 1538 1538 1538 1538 1538 1537 1537 1537 1536 1536 1535 1535 1535 1534 1534 1533 1533 1533 1533 1533 1534 1534 1534 1535 1536 1538 1539 1540 1540 1542 1544 1545 1546 1547 1548 1549